Regional Weather Roundup
Issued by NWS

Home | Current Version | Previous Version | Text Only | Print | Product List | Glossary Off
Versions: 1 2 3 4 5 6 7 8 9 10 11 12 13 14 15 16 17 18 19 20 21 22 23 24 25 26 27 28 29 30 31 32 33 34 35 36 37 38 39 40 41 42 43 44 45 46 47 48 49 50

000
ASUS43 KFSD 230910
RWRSD

WEATHER ROUNDUP FOR SOUTH DAKOTA
NATIONAL WEATHER SERVICE SIOUX FALLS SD
400 AM CDT SAT AUG 23 2014

NOTE: "FAIR" INDICATES FEW OR NO CLOUDS BELOW 12,000 FEET WITH NO
SIGNIFICANT WEATHER AND/OR OBSTRUCTIONS TO VISIBILITY.


SDZ001>005-009-010-012>017-231000-
NORTHWEST AND NORTH CENTRAL SOUTH DAKOTA

CITY           SKY/WX    TMP DP  RH WIND       PRES   REMARKS
BUFFALO          N/A     65  62  90 E15       29.90F
FAITH            N/A     63  61  93 E18       29.95F
MOBRIDGE       RAIN      64  64 100 E17G26    29.94F FOG
$$

SDZ012>016-024>037-041>051-057-063-072>074-231000-
SOUTHWEST AND SOUTH CENTRAL SOUTH DAKOTA

CITY           SKY/WX    TMP DP  RH WIND       PRES   REMARKS
RAPID CTY ARPT NOT AVBL
PIERRE         LGT RAIN  69  69 100 E13       29.89F
ELLSWORTH AFB  CLOUDY    65  65 100 SE7       29.94R
PHILIP         CLOUDY    69  66  90 E7        29.91S
PINE RIDGE     LGT RAIN  62  61  96 E10       29.94F
WINNER         RAIN      69  66  90 E5        29.90F
$$

SDZ004>011-016>023-039-040-231000-
NORTHEAST SOUTH DAKOTA

CITY           SKY/WX    TMP DP  RH WIND       PRES   REMARKS
ABERDEEN       CLOUDY    65  64  97 NE12      29.98F
WATERTOWN      CLOUDY    67  66  97 NE10      29.98R
SISSETON         N/A     66  66 100 NE7       29.99F
$$

SDZ017-020-022-023-036>040-048>070-231000-
SOUTHEAST SOUTH DAKOTA

CITY           SKY/WX    TMP DP  RH WIND       PRES   REMARKS
SIOUX FALLS    HVY RAIN  72  68  87 SE8       29.94F FOG
HURON          CLOUDY    71  67  87 E9        29.93S
CHAMBERLAIN    LGT RAIN  69  69  97 E9        29.92S
MITCHELL       HVY RAIN  71  70  96 E9        29.95R FOG
YANKTON        CLOUDY    72  68  88 CALM      29.92F
$$

ABBREVIATIONS USED IN REMARKS
   TC - TEMPERATURE IN CELSIUS
  WCI - WIND CHILL INDEX
   HX - HEAT INDEX
  VSB - VISIBILITY




USA.gov is the U.S. government's official web portal to all federal, state and local government web resources and services.